GFSFLT2_sfc_rhum_063.txt.gz
RH
96 94 91 93 88 86 87 92 91 70 73 76 77 77 79 79 78 79 83 85 86 85 85 83 79 80 83
97 99 96 92 95 92 88 82 90 64 63 67 71 72 74 75 75 77 78 76 76 79 79 78 77 75 73
100 98 96 93 95 93 92 92 85 58 54 53 54 56 64 72 72 74 75 78 78 77 74 72 71 71 70
97 98 95 93 96 93 81 80 80 54 56 57 53 52 52 53 62 64 64 66 67 68 70 69 67 66 65
99 94 92 86 85 86 83 88 86 77 73 68 68 67 63 61 58 57 55 55 57 61 62 64 65 66 65
97 89 81 80 90 90 90 97 92 84 75 68 68 66 68 63 47 52 56 59 60 60 56 56 57 57 57
79 78 85 84 89 92 92 94 90 84 74 68 77 71 73 57 55 54 61 60 62 65 66 66 64 62 62
84 86 88 89 85 84 84 87 87 80 76 91 83 80 79 77 57 57 65 62 60 61 62 64 69 68 66
64 56 52 53 64 80 95 95 92 78 84 80 90 92 87 90 77 56 56 58 54 55 57 60 62 67 87
63 66 54 53 52 74 91 96 98 97 85 94 93 94 93 85 88 86 84 65 62 59 62 63 64 84 92
62 56 56 66 74 82 86 95 99 99 91 92 99 98 98 98 89 86 89 86 87 81 74 73 68 73 94
54 53 68 85 95 94 90 95 96 93 96 95 98 97 99 99 96 88 90 90 95 96 97 79 76 73 71
57 84 94 94 98 97 97 97 97 96 94 98 97 100 98 100 99 95 91 94 87 98 98 98 94 98 97
74 69 88 99 97 97 97 98 98 97 93 97 97 97 100 98 98 92 94 98 97 96 95 93 95 95 96
84 79 70 87 94 98 98 98 98 98 97 94 95 97 97 96 99 95 95 96 95 95 98 96 91 94 94
90 95 94 96 96 97 98 97 98 97 98 97 97 95 95 94 92 95 96 96 95 97 98 99 94 88 88
91 93 96 97 92 97 98 98 97 97 97 98 98 99 100 97 89 70 96 97 98 96 92 96 93 86 83

GFSFLT2_sfc_rhum_066.txt.gz
RH
96 92 90 89 93 92 91 93 93 70 71 73 75 76 76 78 79 79 80 82 82 82 82 82 81 83 88
98 100 97 93 95 94 90 85 91 73 58 56 63 69 75 74 77 79 79 78 78 81 80 77 79 80 78
100 97 97 93 94 94 94 89 79 55 55 56 53 55 58 71 74 74 75 76 78 77 76 73 70 69 69
98 99 96 93 94 88 81 81 79 54 56 56 57 57 55 54 61 60 63 66 67 68 70 71 69 67 65
100 96 94 91 88 85 82 87 81 80 73 67 72 67 67 69 61 55 52 54 56 58 61 63 64 65 65
98 90 84 81 86 87 90 96 88 84 76 64 73 71 73 64 52 52 56 58 62 62 60 57 56 57 57
87 84 80 82 88 93 92 94 86 82 76 65 80 75 75 62 66 54 64 62 65 69 69 67 66 64 62
78 81 83 87 84 83 84 86 84 79 77 89 85 83 84 82 61 56 63 60 59 58 60 62 66 68 68
71 67 68 72 74 82 96 92 87 75 83 82 88 92 89 91 80 66 64 62 57 56 57 60 62 64 84
70 60 56 53 57 68 89 95 96 96 85 94 93 95 90 82 90 88 85 70 70 70 67 67 65 87 92
66 59 56 66 75 77 81 93 98 98 89 91 99 98 98 98 86 86 90 84 84 82 73 70 67 72 94
59 52 64 81 90 90 86 92 93 92 95 95 97 97 99 99 96 86 90 91 96 95 97 82 71 71 71
58 77 89 94 97 98 98 98 98 96 94 98 97 100 98 98 98 98 94 93 97 99 98 98 98 98 98
67 63 87 99 98 97 98 99 98 97 94 96 98 97 100 99 98 97 98 99 98 97 94 93 94 95 97
77 76 72 91 96 98 98 99 98 98 97 96 96 97 97 97 100 97 96 98 97 96 99 97 92 95 95
86 89 90 93 94 98 98 98 98 98 98 97 97 94 93 91 92 95 98 98 97 97 98 100 92 95 91
88 90 93 94 88 97 98 98 98 98 97 98 99 98 100 98 88 76 98 99 98 99 98 98 95 88 84

GFSFLT2_sfc_rhum_069.txt.gz
RH
96 93 90 89 88 89 92 93 92 70 71 68 69 75 76 77 80 80 81 82 82 84 85 83 82 84 86
99 100 97 91 90 92 90 86 89 69 57 57 59 66 73 75 76 78 79 79 79 79 78 78 80 79 80
100 97 96 94 94 92 93 85 66 55 58 62 58 55 57 68 71 73 74 75 77 77 76 74 73 71 71
97 98 96 93 92 85 82 81 74 54 57 57 58 57 59 58 59 61 60 63 68 70 71 72 72 69 67
100 97 96 92 91 87 81 80 80 80 72 66 68 66 69 66 63 55 57 57 59 59 61 63 64 64 65
98 90 84 86 86 81 82 90 81 85 76 63 72 70 73 74 58 54 60 59 63 65 64 61 58 57 57
87 87 84 83 86 92 91 92 83 82 76 61 75 72 75 65 66 57 66 65 68 67 67 68 68 67 64
78 79 82 83 84 84 84 85 85 77 76 85 80 78 81 84 65 59 62 62 58 59 60 63 64 67 74
72 72 74 74 78 86 97 94 85 72 80 77 86 84 85 88 84 73 68 63 60 58 60 64 65 72 83
73 61 58 57 59 72 90 96 97 94 82 91 86 88 86 81 88 88 84 68 66 65 66 69 68 92 94
65 60 58 68 76 74 77 92 98 97 86 88 98 97 97 97 81 85 89 82 82 82 71 67 64 71 92
62 55 65 79 86 86 84 91 90 90 93 94 97 97 98 98 95 82 88 88 95 94 96 79 72 73 72
64 79 85 87 92 96 98 97 97 95 92 97 96 99 98 98 97 98 95 92 97 99 98 98 98 98 98
70 62 83 96 96 96 97 98 98 97 92 97 97 97 100 99 98 99 98 98 98 98 97 97 94 93 97
79 73 71 90 94 97 98 99 98 98 97 95 97 96 97 97 100 98 96 98 97 98 98 97 94 96 93
88 88 85 91 94 95 97 98 98 98 98 98 97 95 94 91 90 95 99 99 98 97 98 100 93 96 89
89 92 92 93 84 95 97 97 98 98 98 98 99 98 100 97 83 78 95 99 99 99 98 98 95 88 86

GFSFLT2_sfc_rhum_072.txt.gz
RH
97 95 93 92 89 87 87 92 91 70 68 64 68 73 74 77 79 80 82 83 84 84 86 86 87 86 84
99 100 97 90 89 88 86 84 86 63 58 57 60 66 72 74 76 78 78 80 78 80 80 82 83 84 83
100 97 96 93 95 92 85 86 64 56 61 63 61 58 58 66 68 72 74 75 77 77 76 75 74 74 74
98 98 96 92 91 87 82 79 76 55 56 59 59 57 61 59 57 56 60 64 69 71 72 73 72 70 69
99 97 96 93 91 82 82 78 76 81 70 64 66 65 69 64 60 57 59 58 59 61 63 65 66 66 66
99 94 91 84 79 83 82 90 76 84 73 59 69 69 72 72 55 57 61 62 65 66 64 62 61 60 59
90 87 82 80 89 91 88 91 75 80 75 59 74 71 75 66 68 62 65 68 67 66 66 70 70 68 66
81 82 82 86 82 80 81 82 83 77 74 86 81 76 80 82 64 62 62 62 60 61 64 65 66 70 74
72 71 73 74 79 84 95 92 81 72 79 75 82 78 81 82 81 71 65 63 62 63 67 68 66 72 81
71 64 62 72 72 74 91 93 95 94 79 89 82 82 85 77 82 82 82 70 66 67 65 68 70 89 89
70 63 60 74 74 74 82 92 95 94 81 85 97 95 95 94 76 80 85 80 77 77 68 66 64 72 89
65 59 65 80 92 91 82 86 85 90 91 92 97 96 97 96 92 78 83 85 91 90 91 78 71 72 70
71 84 91 94 94 94 94 94 96 94 92 96 96 98 97 97 96 97 96 91 95 98 96 94 94 93 96
76 67 85 96 94 95 98 98 98 96 94 96 96 96 100 98 98 98 98 97 97 98 96 96 90 89 95
81 77 73 89 93 96 97 98 97 95 95 96 96 96 98 96 100 98 97 98 97 98 98 97 94 92 89
94 91 87 94 97 97 96 97 97 96 96 95 96 95 93 91 89 97 99 99 98 98 98 100 98 93 85
94 92 93 94 87 95 97 96 97 96 96 96 98 97 97 94 87 81 97 98 99 99 98 99 94 87 85

GFSFLT2_sfc_rhum_075.txt.gz
RH
96 93 94 91 92 87 83 83 82 67 68 64 70 71 74 76 78 80 80 80 83 85 87 86 87 84 85
98 100 97 91 89 86 82 74 69 61 59 58 61 68 71 72 74 77 78 79 78 81 83 85 84 84 84
100 96 96 91 94 92 84 76 53 60 62 64 62 58 64 65 69 71 74 76 77 78 77 79 78 78 80
98 98 95 91 90 88 78 72 61 46 52 57 58 62 59 59 55 57 60 66 71 73 74 75 73 73 72
98 95 95 91 88 77 79 64 59 59 53 49 46 48 55 59 59 58 58 57 59 64 67 69 70 70 69
97 93 90 85 77 75 72 68 68 61 54 47 51 51 53 57 56 59 58 61 63 62 61 61 61 62 62
90 87 82 76 79 81 71 65 52 61 55 45 52 51 54 50 71 63 64 67 66 66 69 69 67 66 64
74 75 71 72 69 72 67 65 63 59 55 58 55 54 56 63 65 64 63 60 62 64 65 66 70 73 74
68 70 73 72 68 64 71 71 63 57 60 53 60 57 60 65 67 71 64 61 61 65 69 67 71 71 68
67 66 70 71 71 64 77 85 73 73 62 72 64 61 72 62 64 62 67 70 68 66 66 63 70 61 59
54 50 54 66 67 58 66 82 85 84 67 78 88 79 78 74 60 60 61 61 57 57 63 63 67 64 65
54 50 51 63 70 71 71 77 77 88 80 87 91 83 81 75 62 56 60 65 66 64 66 68 66 67 68
58 61 64 66 85 87 89 86 86 86 87 89 87 90 83 80 73 70 67 64 72 78 76 72 68 65 74
62 59 67 81 79 81 83 83 84 82 88 90 91 89 89 81 83 78 76 83 74 75 78 76 67 62 69
65 60 60 70 75 80 80 85 82 82 85 88 88 86 86 90 85 72 64 71 76 82 81 77 72 71 64
78 76 70 77 79 84 85 83 82 81 81 83 86 84 78 72 81 72 73 76 77 82 83 90 81 73 59
87 88 86 82 78 83 86 84 86 81 82 86 90 88 84 73 58 78 80 82 82 80 81 84 87 82 72

GFSFLT2_sfc_rhum_078.txt.gz
RH
90 87 92 94 93 85 86 86 82 69 69 66 71 71 73 76 78 78 80 80 84 87 88 88 80 83 85
96 99 97 93 90 86 80 73 71 69 61 60 61 70 72 73 74 77 78 80 80 84 87 87 87 92 89
99 95 95 92 95 92 86 75 55 70 65 64 60 59 65 67 67 69 74 77 78 78 81 86 82 86 86
96 98 95 94 93 93 87 78 64 46 52 56 56 65 59 58 55 58 61 68 72 74 76 77 80 79 78
98 97 96 95 94 87 88 77 66 63 51 44 42 42 53 55 57 59 59 58 62 66 69 71 72 72 72
98 96 92 90 83 83 82 79 80 54 53 46 41 42 42 50 61 60 58 61 62 62 62 63 64 65 64
92 90 88 80 82 86 80 78 64 52 51 45 42 42 46 41 69 62 61 67 68 68 67 65 64 63 62
75 75 76 77 77 75 69 61 54 50 50 58 44 44 47 53 66 65 62 61 63 65 65 69 74 74 73
68 70 71 70 64 62 72 72 60 48 52 48 51 50 51 60 64 71 64 60 62 66 69 68 71 68 71
64 69 66 68 66 56 68 94 67 66 52 67 56 53 70 59 63 61 68 73 71 66 68 65 70 57 55
50 53 58 63 57 50 59 84 88 83 60 74 85 75 84 76 60 59 58 62 57 59 64 61 67 66 62
45 39 42 56 64 62 63 71 70 92 69 92 99 86 87 76 65 56 60 61 62 61 61 59 68 62 63
48 53 60 62 86 85 88 84 84 85 87 95 93 90 88 86 75 67 61 60 67 74 74 69 64 58 70
49 51 56 74 69 72 77 76 78 80 87 93 96 91 88 79 81 78 74 87 69 69 74 71 63 57 60
53 52 50 60 63 72 73 78 80 75 77 83 84 84 83 92 83 69 60 62 70 81 80 76 66 64 60
70 70 66 70 70 76 80 79 78 73 74 78 84 83 78 75 79 70 61 68 71 80 80 83 80 71 57
90 92 91 84 78 76 78 77 80 75 76 80 86 87 85 74 67 76 80 78 76 76 76 80 85 80 65

GFSFLT2_sfc_rhum_084.txt.gz
RH
98 95 95 96 94 89 91 91 90 78 75 69 72 71 73 73 74 76 77 80 80 82 86 88 91 84 81
98 100 98 96 95 92 85 77 84 84 74 68 64 71 70 71 73 74 77 78 79 80 85 89 89 92 81
100 98 98 97 98 95 91 83 70 84 68 65 62 62 67 65 60 62 68 74 76 78 82 86 91 90 90
99 99 98 97 96 97 96 88 76 66 69 64 60 62 61 58 56 58 60 65 72 75 77 81 84 89 90
100 100 99 98 99 97 97 92 86 77 75 68 67 62 82 61 57 59 57 58 65 70 72 73 75 78 83
100 99 98 96 96 97 95 96 97 82 81 80 64 67 69 77 58 58 56 60 61 66 66 68 69 70 72
97 96 96 95 95 96 93 95 94 82 79 82 72 72 68 56 61 60 62 67 67 65 66 66 66 66 66
91 90 92 92 90 88 90 87 72 66 71 88 74 75 75 73 60 66 65 64 67 69 72 74 74 71 74
67 72 73 78 83 93 95 87 82 73 73 76 75 79 77 89 90 66 62 63 66 70 73 73 73 76 79
89 82 79 83 75 87 92 93 90 88 79 87 81 82 91 89 93 92 92 64 70 71 73 70 66 79 84
94 95 93 90 84 82 90 95 94 97 82 91 97 97 98 96 92 87 93 92 86 82 65 58 64 72 85
86 91 96 98 93 93 90 94 97 92 84 97 99 95 98 98 94 86 88 91 87 86 89 63 65 60 57
80 88 93 94 96 98 98 98 97 97 95 98 98 99 98 98 94 95 94 89 97 96 98 96 94 93 93
78 82 97 97 98 98 99 99 99 99 98 98 97 96 98 98 98 96 98 95 98 96 98 98 88 84 87
81 88 87 94 95 97 98 98 98 100 98 99 98 96 98 95 97 98 98 97 96 96 95 98 97 94 88
84 84 86 91 92 94 98 98 98 98 99 100 100 98 96 91 88 98 97 96 98 97 98 98 98 92 91
86 86 88 90 82 91 97 97 98 97 98 99 99 98 99 94 96 80 96 97 97 98 98 98 98 97 93

GFSFLT2_sfc_rhum_087.txt.gz
RH
98 97 95 95 92 94 92 93 90 77 74 72 72 72 73 72 73 74 76 77 78 78 79 84 85 90 87
99 100 98 96 95 93 87 79 86 82 82 73 71 74 71 71 71 72 75 77 78 80 81 84 90 91 88
100 99 99 97 98 95 91 86 69 77 82 69 66 67 72 67 60 59 65 71 76 77 79 82 88 91 92
99 100 98 98 96 98 98 90 80 76 71 68 69 65 64 60 56 57 59 61 70 74 76 78 82 91 92
100 100 99 99 99 98 98 96 88 80 80 77 77 66 77 66 59 60 58 59 64 70 72 72 76 86 92
100 99 98 97 97 99 98 99 99 85 84 82 68 69 64 72 61 58 57 60 60 66 67 69 71 73 81
97 97 97 94 96 98 97 96 95 86 82 87 65 67 74 66 62 61 59 67 66 63 66 66 68 68 70
94 93 92 92 89 92 93 90 76 76 79 89 69 74 78 75 59 65 67 65 67 68 70 72 72 74 70
78 83 83 83 90 94 96 88 84 75 70 71 77 80 82 90 92 68 64 65 67 68 73 76 76 78 80
87 82 80 84 83 90 91 94 90 90 73 84 82 82 90 93 95 93 93 66 65 71 74 66 68 82 88
91 96 95 94 94 91 91 96 94 91 81 84 97 99 97 97 95 94 95 94 89 88 65 59 63 76 88
93 97 98 98 94 96 94 95 94 91 85 90 96 96 98 98 96 94 94 94 93 94 94 66 65 59 58
86 92 96 94 96 98 99 97 98 96 98 100 98 100 97 97 96 98 96 92 98 97 98 96 94 95 92
82 80 89 94 96 97 99 99 100 98 98 98 97 96 100 99 97 97 98 94 99 98 98 98 90 89 91
77 81 82 87 90 97 97 99 98 98 97 99 98 97 98 94 96 98 97 98 98 98 96 98 98 95 89
83 84 83 89 91 94 98 98 99 99 100 98 100 97 92 87 86 97 99 97 98 98 98 98 98 92 90
84 87 88 90 86 91 90 93 98 98 98 100 99 96 97 90 91 81 95 95 98 99 98 97 97 96 90

GFSFLT2_sfc_rhum_090.txt.gz
RH
98 98 98 97 96 92 94 94 95 83 79 77 72 74 74 73 74 75 77 79 77 78 77 77 81 84 82
100 100 99 97 97 96 92 84 90 85 82 78 75 76 76 74 72 71 72 75 77 78 79 79 80 87 88
100 99 99 98 99 96 93 92 78 79 80 82 73 70 75 74 64 59 60 64 71 76 78 79 81 89 91
100 100 99 98 97 98 99 93 87 76 81 73 72 68 68 68 58 56 58 59 62 72 75 76 80 90 90
100 100 100 99 99 99 99 97 92 86 86 82 80 74 71 68 64 57 61 56 59 68 72 73 75 89 92
100 99 99 98 99 99 99 99 99 90 87 87 77 79 67 75 63 60 60 57 59 62 69 70 71 81 91
97 98 97 96 97 99 98 98 97 94 88 91 74 74 67 56 64 61 59 66 68 64 68 68 70 70 80
93 94 93 95 92 91 92 93 84 86 85 93 71 68 68 71 63 59 66 66 68 68 72 74 76 72 70
89 88 88 87 89 92 97 95 88 82 80 77 72 71 80 82 86 72 68 66 68 68 69 76 76 82 82
91 89 89 91 87 88 94 98 93 90 76 80 74 79 88 92 96 95 92 68 66 67 70 67 71 87 90
94 95 95 95 97 95 92 94 94 97 77 83 94 98 95 98 97 96 95 94 87 81 67 61 67 79 90
91 92 95 99 98 97 95 94 90 97 79 86 93 96 98 99 98 97 97 97 95 97 96 72 63 62 66
89 89 92 96 97 96 98 95 96 94 89 94 92 97 97 97 97 99 97 96 99 97 98 96 96 96 90
87 85 90 97 97 98 100 96 99 99 96 97 94 94 100 98 96 98 98 95 100 98 97 98 92 91 92
89 85 84 90 90 97 95 98 96 99 98 98 97 95 98 96 98 97 97 99 99 98 96 98 98 95 88
98 97 88 91 90 93 93 94 91 97 98 98 100 96 92 86 83 97 99 96 99 98 98 98 98 90 87
98 98 98 93 88 92 88 88 91 94 96 99 99 96 96 88 90 78 96 98 98 99 98 98 96 95 87